[ hide orbit diagram ]
For accurate long-term ephemerides, please instead use our Horizons system.This orbit viewer was implemented using two-body methods, and hence should not be used for determining accurate long-term trajectories (over several years or decades) or planetary encounter circumstances.
[ revert to old Java-based viewer ]
Orbital Elements at Epoch 2458600.5 (2019-Apr-27.0) TDB
Reference: JPL 16 (heliocentric ecliptic J2000)
Element | Value | Uncertainty (1-sigma) | Units |
e | .1390385904593983 | 5.6543e-08 | |
a | 2.423937979821935 | 1.4162e-08 | au |
q | 2.086917059746491 | 1.3606e-07 | au |
i | 6.122337856903683 | 7.1949e-06 | deg |
node | 196.4794480139789 | 3.9353e-05 | deg |
peri | 208.2831000508153 | 4.5574e-05 | deg |
M | 136.3184991693511 | 2.1332e-05 | deg |
tp | 2458078.545101925867 (2017-Nov-21.04510193) | 8.1256e-05 | TDB |
period | 1378.417195403915 3.77 | 1.208e-05 3.307e-08 | d yr |
n | .2611691157077519 | 2.2888e-09 | deg/d |
Q | 2.760958899897378 | 1.6131e-08 | au |
|
| | Orbit Determination Parameters
Additional Information
|
[ show covariance matrix ]
Physical Parameter Table
Parameter |
Symbol |
Value |
Units |
Sigma |
Reference |
Notes |
absolute magnitude |
H |
16.7 |
|
n/a |
MPO436906 |
|
|
183333 (2002 VB77) Discovered 2002-Nov-07 by LINEAR at Socorro |
Reference: 20080420/Numbers.arc | Last Updated: 2008-04-23 |
|
[ show close-approach data ]
|